Simultaneous Nadir Overpasses (SNOs) Predictions

Prediction of SNOs between AQUA and METOP-B Satellite Orbit:

Table of predicted SNOs for the next 14.0 days since TLE Epoch: 3/2/2024
Index Date (AQUA) Time (AQUA) Lat,Lon (AQUA) SZA (AQUA ) Date (METOP-B) Time (METOP-B) Lat,Lon (METOP-B) SZA (METOP-B ) Distance(km) Time Diff (sec)
1 03/04/2024 13:29:57 -75.41, 154.37 98.48 03/04/2024 13:29:45 -75.40, 154.30 98.49 2.84 12
2 03/04/2024 14:19:22 75.48, -38.18 81.59 03/04/2024 14:20:23 75.48, -38.12 81.58 1.60 61
3 03/07/2024 04:52:02 74.78, 105.56 79.82 03/07/2024 04:50:58 74.75, 102.18 79.90 98.82 64
4 03/07/2024 05:41:37 -75.42, -88.53 99.51 03/07/2024 05:41:26 -75.42, -88.58 99.51 1.61 11
5 03/07/2024 06:31:02 75.50, 78.90 80.56 03/07/2024 06:32:04 75.50, 79.00 80.55 2.58 62
6 03/09/2024 21:03:43 74.90,-137.63 78.90 03/09/2024 21:02:37 74.86,-140.46 78.94 82.30 66
7 03/09/2024 21:53:16 -75.44, 28.55 100.54 03/09/2024 21:53:07 -75.43, 28.52 100.55 1.69 9
8 03/09/2024 22:42:41 75.52,-164.03 79.54 03/09/2024 22:43:45 75.51,-163.91 79.51 3.78 64
9 03/12/2024 13:15:22 75.03, -20.84 77.99 03/12/2024 13:14:14 75.00, -22.99 78.02 61.75 68
10 03/12/2024 14:04:53 -75.47, 145.61 101.57 03/12/2024 14:04:46 -75.48, 145.73 101.56 3.71 7
11 03/12/2024 14:54:17 75.50, -46.84 78.46 03/12/2024 14:55:25 75.51, -46.84 78.46 0.82 68
12 03/15/2024 05:27:02 75.22, 95.79 77.13 03/15/2024 05:25:52 75.14, 94.47 77.09 38.35 70
13 03/15/2024 06:16:29 -75.45, -97.20 102.65 03/15/2024 06:16:27 -75.48, -97.21 102.62 2.94 2



Historial Predications of SNOs between AQUA and METOP-B
